Flag for U.S.A. Weather past 2 weeks in Redmond, Washington, U.S.A.

Now
54 °F

Mostly cloudy.


Feels Like: 52 °F
Forecast: 52 / 75 °F
Wind: 7 mph from Southeast

Location: Seattle Boeing Field

Current Time: Apr 27, 2015 at 4:31:14 AM

Latest Report: Apr 27, 2015 at 3:53 AM


Visibility: 8 mi

Pressure: 30.26 "Hg

Humidity: 83%

Dew point: 49 °F

Location of RedmondLocation

Historic Weather in Redmond — Graph

°F

Redmond temperature yesterday

Maximum temperature yesterday: 61 °F (at 3:53 PM)
Minimum temperature yesterday: 42 °F (at 5:53 AM)
Average temperature yesterday: 53 °F

Past Weeks' High & Low Weather Summary

 TemperatureHumidityPressure
High74 °F (Apr 20, 4:53 PM)100% (Apr 13, 6:53 PM)30.56 "Hg (Apr 13, 6:53 PM)
Low39 °F (Apr 15, 5:53 AM)24% (Apr 22, 3:53 PM)29.77 "Hg (Apr 24, 3:53 AM)
Average53 °F62%30.12 "Hg
* Reported Apr 12 3:53 AM — Apr 27 3:00 AM, Redmond, Weather by CustomWeather, © 2015

Note: Actual official high and low records may vary slightly from our data, if they occured in-between our weather recording intervals... More about our weather records

Advertising

Redmond weather history for previous 24 hours

 ConditionsComfort  
Time TempWeatherWind HumidityBarometerVisibility
3:00 AM
Mon, Apr 27
54 °FMostly cloudy.7 mph82%30.26 "Hg10 mi
1:53 AM55 °FMostly cloudy.6 mph77%30.26 "Hg10 mi
12:53 AM55 °FMostly cloudy.8 mph77%30.27 "Hg10 mi
11:53 PM
Sun, Apr 26
56 °FOvercast.7 mph72%30.25 "Hg10 mi
10:53 PM56 °FOvercast.8 mph67%30.26 "Hg10 mi
9:53 PM57 °FMostly cloudy.3 mph62%30.25 "Hg10 mi
8:53 PM58 °FMostly cloudy.7 mph58%30.24 "Hg10 mi
7:53 PM59 °FOvercast.5 mph51%30.22 "Hg10 mi
6:53 PM59 °FOvercast.No wind49%30.22 "Hg10 mi
5:53 PM60 °FPartly sunny.3 mph46%30.22 "Hg10 mi
4:53 PM60 °FBroken clouds.5 mph46%30.22 "Hg10 mi
3:53 PM61 °FPartly sunny.9 mph46%30.21 "Hg10 mi
2:53 PM60 °FBroken clouds.8 mph46%30.22 "Hg10 mi
1:53 PM58 °FScattered clouds.8 mph51%30.23 "Hg10 mi
12:53 PM57 °FMore clouds than sun.5 mph51%30.23 "Hg10 mi
11:53 AM56 °FMostly cloudy.No wind49%30.23 "Hg10 mi
10:53 AM54 °FMostly cloudy.3 mph55%30.23 "Hg10 mi
9:53 AM51 °FOvercast.6 mph61%30.21 "Hg10 mi
8:53 AM48 °FOvercast.7 mph66%30.19 "Hg10 mi
7:53 AM46 °FOvercast.6 mph73%30.19 "Hg10 mi
6:53 AM44 °FPassing clouds.6 mph76%30.16 "Hg10 mi
5:53 AM42 °FPassing clouds.No wind79%30.15 "Hg10 mi
4:53 AM43 °FPassing clouds.3 mph79%30.14 "Hg10 mi
Weather by CustomWeather, © 2015

See weather overviewHow to use our weather pages